Terminal Aerodrome Forecast
Issued by NWS

Home | Current Version | Previous Version | Text Only | Print | Product List | Glossary On
Versions: 1 2 3 4 5 6 7 8 9 10 11 12 13 14 15 16 17 18 19 20 21 22 23
000
FTUS43 KDLH 230922 AAA
TAFHYR
TAF AMD
KHYR 230922Z 2309/2406 33004KT 4SM BR OVC003
      TEMPO 2309/2311 P6SM NSW SCT060 BKN090
     FM231200 VRB03KT 6SM BR BKN015 BKN040
     FM231700 01007KT P6SM SCT020 BKN040
     FM232200 04007KT P6SM SCT040=

USA.gov is the U.S. government's official web portal to all federal, state and local government web resources and services.